Location: Zilina
(49.2170°N, 18.7330°E)
Time: 13:56:13
(UTC+02:00)

ISS - Pass Details

Date: 29 March 2019
Orbit: 408 x 410 km, 51.6° (Epoch: 24 April)

Event Time Altitude Azimuth Distance (km) Brightness Sun altitude
Rises 20:05:24 0° 281° (WNW) 2,338 1.4 -18.5°
Reaches altitude 10° 20:07:31 10° 286° (WNW) 1,475 0.2 -18.8°
Maximum altitude 20:10:46 56° 6° (N) 493 -3.4 -19.3°
Enters shadow 20:11:11 51° 39° (NE) 523 -3.4 -19.3°
